This demonstration page uses our WeatherBlox Daily Observations layout. Learn more.

Left ArrowRight Arrow

Hourly Observations for April 21, 2022

Temp ( °F °C ) Dew Point ( °F °C ) Humidity (%) Winds ( mph kmh ) Pressure ( in mb ) Visibility ( mi km ) Precip ( " mm )
12:53 am 00:53 Clear 52 11.1 37 2.8 57 57 ESE 9 15 29.95 1014 10 16 0.00 0.00
1:53 am 01:53 Clear 51 10.6 43 6.1 74 74 SE 9 15 29.94 1014 10 16 0.00 0.00
2:53 am 02:53 Clear 50 10 45 7.2 83 83 SSE 9 15 29.96 1015 8 13 0.00 0.00
3:53 am 03:53 Clear with Mist and Fog 49 9.4 46 7.8 90 90 S 8 13 29.98 1015 6 10 0.00 0.00
4:53 am 04:53 Clear with Mist and Fog 49 9.4 47 8.3 93 93 SSE 8 13 30.01 1016 5 8 0.00 0.00
5:53 am 05:53 Clear with Mist and Fog 50 10 48 8.9 93 93 S 6 9 30.04 1017 5 8 0.00 0.00
6:53 am 06:53 Sunny with Mist and Fog 49 9.4 48 8.9 97 97 S 6 9 30.07 1018 3 4 0.00 0.00
7:12 am 07:12 Sunny with Mist and Fog 49 9.4 49 9.4 100 100 S 5 7 30.11 1020 2 2 0.00 0.00
7:38 am 07:38 Mostly Cloudy with Mist and Fog 49 9.4 48 8.9 97 97 N 7 11 30.12 1020 1 1 0.00 0.00
7:48 am 07:48 Partly Cloudy with Mist and Fog 52 11 48 9 88 88 VRB 6 9 30.12 1020 2 2 0.00 0.00
7:50 am 07:50 Partly Cloudy with Mist and Fog 52 11 48 9 88 88 E 6 9 30.12 1020 3 5 0.00 0.00
7:53 am 07:53 Partly Cloudy with Mist and Fog 52 11.1 50 10 93 93 ENE 8 13 30.11 1020 4 6 0.00 0.00
8:53 am 08:53 Mostly Cloudy with Mist and Fog 49 9.4 45 7.2 86 86 ENE 8 13 30.16 1021 4 6 0.00 0.00
9:53 am 09:53 Mostly Cloudy 55 12.8 47 8.3 74 74 ENE 12 19 30.15 1021 7 11 0.00 0.00
10:53 am 10:53 Mostly Cloudy 60 15.6 48 8.9 65 65 E 15 24 30.14 1021 10 16 0.00 0.00
11:53 am 11:53 Sunny 67 19.4 46 7.8 47 47 ESE 15 24 30.11 1020 10 16 0.00 0.00
12:53 pm 12:53 Sunny 70 21.1 44 6.7 39 39 E 17 28 30.10 1019 10 16 0.00 0.00
1:53 pm 13:53 Sunny 73 22.8 41 5 32 32 SE 15 24 30.07 1018 10 16 0.00 0.00
2:53 pm 14:53 Sunny 74 23.3 40 4.4 29 29 ESE 18 30 30.05 1018 10 16 0.00 0.00
3:53 pm 15:53 Mostly Sunny 75 23.9 38 3.3 26 26 SE 20 31 30.02 1017 10 16 0.00 0.00
4:53 pm 16:53 Sunny 75 23.9 38 3.3 26 26 ESE 26 43 29.98 1015 10 16 0.00 0.00
5:53 pm 17:53 Cloudy 72 22.2 38 3.3 29 29 ESE 26 43 29.98 1015 10 16 0.00 0.00
6:53 pm 18:53 Mostly Cloudy 71 21.7 37 2.8 29 29 SE 18 30 29.97 1015 10 16 0.00 0.00
7:53 pm 19:53 Mostly Cloudy 69 20.6 40 4.4 35 35 SE 21 33 29.96 1014 10 16 0.00 0.00
8:53 pm 20:53 Cloudy 65 18.3 49 9.4 56 56 SE 16 26 29.97 1015 10 16 0.00 0.00
9:53 pm 21:53 Cloudy 64 17.8 51 10.6 63 63 SE 13 20 29.97 1015 10 16 0.00 0.00
10:24 pm 22:24 Cloudy with Light Rain 63 17.2 51 10.6 65 65 SE 14 22 29.94 1014 10 16 0.01 0.25
10:53 pm 22:53 Cloudy with Nearby Thunderstorms 63 17.2 49 9.4 60 60 SE 16 26 29.93 1014 10 16 0.01 0.25
11:01 pm 23:01 Windy with Storms Likely 62 16.7 51 10.6 67 67 SE 20 31 29.91 1013 9 14 0.00 0.00
11:34 pm 23:34 Cloudy with Nearby Thunderstorms 59 15 55 12.8 87 87 ESE 18 30 29.89 1012 10 16 0.05 1.27
11:46 pm 23:46 Cloudy with Thunderstorms 60 15.6 54 12.2 80 80 ESE 20 31 29.89 1012 10 16 0.05 1.27
11:53 pm 23:53 Cloudy with Thunderstorms 59 15 55 12.8 87 87 E 17 28 29.91 1013 10 16 0.05 1.27

Powered by AerisWeather